Location: Andershausen
(51.8462°N, 9.8595°E)
Time: 09:50:25
(UTC+00:00)

Cosmos 407 Rocket - Pass Details

Date: 18 November 2025
Orbit: 740 x 780 km, 74.0° (Epoch: 11 December)

Event Time Altitude Azimuth Distance (km) Brightness Sun altitude
Rises 16:24:09 0° 183° (S) 3,204 7.0 -9.0°
Reaches altitude 10° 16:26:36 10° 177° (S) 2,277 6.2 -9.3°
Maximum altitude 16:31:28 44° 106° (ESE) 1,028 3.8 -10.0°
Drops below altitude 10° 16:36:20 10° 35° (NE) 2,271 5.5 -10.7°
Enters shadow 16:37:01 - 33° (NNE) 2,525 5.7 -10.8°
